Back to catalog

OPS 1593

TRANSIT 11

AliveNavigationPO
NORAD 1952·PAYLOAD·🇺🇸 United States

Launched Jan 28, 1966 from Vandenberg Space Force Base

Loading…

Next Passes (next 24 hours)

TLE

FreshSource: Space-Track

Epoch: Sep 14, 2026, 05:02 UTC

1 01952U 66005A   26257.20973684  .00000112  00000-0  99494-4 0  9998
2 01952  90.1531 353.1819 0219112 113.3531 249.0846 13.68161549 18298

Track OPS 1593 in real time with AllMySat

Download on the App Store